sat.trackr.live / text

‹ back to catalog

STARLINK-31495

NORAD 59313 · 2024-056T

PAYLOAD ACTIVE UNKNOWN

§ Identity

Operator
Country
US
Launch date
2024-03-24
Launch site
AFETR
Launch vehicle
Mass (kg)
RCS (m²)

Purposes: comms

External: N2YO · Heavens-Above · Gunter

§ Orbital elements

Epoch: 2026-09-20T21:42:57.658464Z

Period
91.76 min
Inclination
42.9688°
Eccentricity
0.0024757
Mean motion
15.69244440 rev/d
Perigee alt
344.4 km
Apogee alt
377.7 km
Semi-major
6,739.2 km
B*
3.6369e-3
RAAN
183.4644°
Arg perigee
196.8529°
Mean anomaly
163.1517°
Rev number
14,129

§ Raw data

STARLINK-314951 59313U 24056T   26263.90483401  .00468496  00000+0  36369-2 0  99912 59313  42.9688 183.4644 0024757 196.8529 163.1517 15.69244440141295

JSON: /api/v1/satellites/59313 · /tle

For live sub-satellite position, see the globe view (requires WebGL).

§ Visibility from observer

Set your observer location to see the next 7 days of passes ≥ 10°. The values pass through the URL so the page stays shareable.

No JS? Fill the form by hand. The geolocation button needs JavaScript.